{"data":{"norad_id":65240,"epoch":"2026-05-25T02:21:21.628800Z","epoch_age_seconds":70036,"freshness":"FRESH","line1":"1 65240U 25179F   26145.09816700  .00004373  00000+0  30689-3 0  9995","line2":"2 65240  97.4457 187.8828 0001702 139.0679 221.0676 15.05656639 43470","mean_motion":15.05656639,"eccentricity":0.0001702,"inclination_deg":97.4457,"raan_deg":187.8828,"arg_perigee_deg":139.0679,"mean_anomaly_deg":221.0676,"bstar":0.00030689,"rev_number":4347,"period_min":95.639335204366,"perigee_km":548.31170738984,"apogee_km":550.66987188944,"semimajor_km":6927.6277896396,"source":"CELESTRAK","updated_at":"2026-05-25T13:38:20.724870Z"}}